Greybull, WY

4:03 PM MDT on May 24, 2018 (GMT -0600)
South Big Horn County

Weather History for KGEY - February, 2014

Change the Weather History Date:

Friday, February 28, 2014

  Actual Average Record
Temperature  
Mean Temperature 17 °F 30 °F  
Max Temperature 30 °F 43 °F 69 °F (2006)
Min Temperature 4 °F 17 °F -5 °F (2001)
Degree Days  
Heating Degree Days 48 35  
Month to date heating degree days 1414 1160  
Since 1 July heating degree days 5887 5971  
Cooling Degree Days 0 0  
Month to date cooling degree days 0 0  
Year to date cooling degree days 0 0  
Moisture  
Dew Point 9 °F    
Average Humidity 76    
Maximum Humidity 84    
Minimum Humidity 67    
Precipitation  
Precipitation T in 0.01 in 0.16 in (2012)
Month to date precipitation 0.22 0.18  
Year to date precipitation 0.26 0.41  
Sea Level Pressure  
Sea Level Pressure 29.92 in    
Wind  
Wind Speed 17 mph (NW)    
Max Wind Speed 37 mph    
Max Gust Speed 43 mph    
Visibility 7 miles    
Events Snow    
T = Trace of Precipitation, MM = Missing Value Source: NWS Daily Summary

Daily Weather History Graph

Daily Weather History Graph

Search for Another Location

Airport or City:

Astronomy

Feb. 28, 2014 Rise Set
Actual Time 6:51 AM MST 5:59 PM MST
Civil Twilight 6:22 AM MST 6:28 PM MST
Nautical Twilight 5:48 AM MST 7:02 PM MST
Astronomical Twilight 5:14 AM MST 7:35 PM MST
Moon 6:08 AM MST (2/28) 5:40 PM MST (2/28)
Length of Visible Light 12h 06m
Length of Day
11h 07m
Waning Crescent, 0% of the Moon is Illuminated
Feb 28
Waning Crescent
Mar 1
New
Mar 8
First Quarter
Mar 16
Full
Mar 23
Last Quarter

Hourly Weather History & Observations

Time (MST) Temp. Windchill Dew Point Humidity Pressure Visibility Wind Dir Wind Speed Gust Speed Precip Events Conditions
12:53 AM 19.0 °F - 15.1 °F 85% 29.71 in 10.0 mi Calm Calm - N/A   Overcast
1:53 AM 26.1 °F 18.4 °F 19.9 °F 78% 29.68 in 10.0 mi NW 6.9 mph - N/A   Overcast
2:37 AM 30.0 °F 18.7 °F 23.0 °F 75% 29.56 in 10.0 mi NW 16.1 mph - N/A   Partly Cloudy
2:53 AM 30.0 °F 16.9 °F 21.9 °F 72% 29.67 in 10.0 mi NNW 21.9 mph - N/A   Mostly Cloudy
3:53 AM 28.0 °F 13.0 °F 19.9 °F 72% 29.70 in 10.0 mi NW 26.5 mph 33.4 mph N/A   Overcast
4:53 AM 26.1 °F 10.7 °F 17.1 °F 69% 29.75 in 10.0 mi WNW 25.3 mph 35.7 mph N/A   Overcast
5:53 AM 21.0 °F 3.0 °F 14.0 °F 74% 29.83 in 10.0 mi NW 28.8 mph 36.8 mph N/A   Overcast
6:53 AM 19.9 °F 5.7 °F 10.0 °F 65% 29.89 in 10.0 mi WNW 16.1 mph - N/A   Overcast
7:53 AM 19.0 °F 5.0 °F 10.9 °F 71% 29.92 in 10.0 mi NW 15.0 mph - N/A   Overcast
8:53 AM 17.1 °F 0.1 °F 8.1 °F 68% 29.97 in 10.0 mi NW 20.7 mph - N/A   Overcast
9:53 AM 18.0 °F 5.4 °F 10.9 °F 74% 29.99 in 2.5 mi WNW 11.5 mph - 0.00 in Snow Light Snow
10:06 AM 19.0 °F 7.5 °F 12.0 °F 74% 29.82 in 3.0 mi NW 10.4 mph - 0.00 in Snow Light Snow
10:16 AM 19.0 °F 5.0 °F 12.0 °F 74% 29.83 in 1.8 mi NW 15.0 mph - 0.00 in Snow Light Snow
10:53 AM 18.0 °F 2.6 °F 10.0 °F 71% 30.01 in 1.8 mi NNW 17.3 mph - 0.00 in Snow Light Snow
11:01 AM 18.0 °F 2.6 °F 10.0 °F 71% 29.85 in 2.5 mi NNW 17.3 mph - 0.00 in Snow Light Snow
11:14 AM 18.0 °F 3.1 °F 10.9 °F 74% 29.85 in 3.0 mi NW 16.1 mph - 0.00 in Snow Light Snow
11:53 AM 16.0 °F 2.9 °F 9.0 °F 74% 30.01 in 10.0 mi WNW 11.5 mph - 0.00 in   Overcast
12:53 PM 18.0 °F 11.1 °F 10.0 °F 71% 30.01 in 10.0 mi NE 4.6 mph - N/A   Overcast
1:53 PM 18.0 °F 5.4 °F 10.9 °F 74% 29.96 in 9.0 mi NNW 11.5 mph - N/A   Overcast
2:53 PM 17.1 °F 2.0 °F 9.0 °F 71% 29.96 in 10.0 mi NW 16.1 mph - N/A   Overcast
3:53 PM 15.1 °F 1.8 °F 8.1 °F 74% 29.98 in 10.0 mi NW 11.5 mph - N/A   Overcast
4:53 PM 12.0 °F -5.6 °F 5.0 °F 73% 30.00 in 10.0 mi NW 18.4 mph - N/A   Overcast
5:53 PM 10.0 °F -8.1 °F 3.0 °F 73% 30.04 in 5.0 mi NNW 18.4 mph - 0.00 in Snow Light Snow
6:53 PM 9.0 °F -8.5 °F 1.9 °F 73% 30.06 in 6.0 mi NW 16.1 mph - 0.00 in Snow Light Snow
7:53 PM 7.0 °F -10.4 °F 1.0 °F 77% 30.10 in 9.0 mi NW 15.0 mph - 0.00 in   Overcast
8:53 PM 6.1 °F -12.2 °F -0.0 °F 76% 30.13 in 5.0 mi NW 16.1 mph - 0.00 in Snow Light Snow
9:14 PM 6.1 °F -12.2 °F -0.0 °F 76% 29.93 in 2.0 mi NW 16.1 mph - 0.00 in Snow Light Snow
9:41 PM 5.0 °F -13.6 °F -0.0 °F 80% 29.93 in 3.0 mi NW 16.1 mph - 0.00 in Snow Light Snow
9:53 PM 5.0 °F -13.6 °F -0.0 °F 80% 30.14 in 5.0 mi NW 16.1 mph - 0.00 in Snow Light Snow
10:53 PM 3.9 °F -15.6 °F -2.0 °F 76% 30.14 in 4.0 mi NW 17.3 mph - 0.00 in Snow Light Snow
11:53 PM 3.9 °F -15.0 °F -2.0 °F 76% 30.18 in 9.0 mi NW 16.1 mph - 0.00 in Snow Light Snow